Jefferson City, MO

1:14 AM CST on February 08, 2016 (GMT -0600)
Jefferson City Memorial

Weather History for KJEF - August, 2013

Change the Weather History Date:

Tuesday, August 27, 2013

  Actual Average Record
Temperature  
Mean Temperature 82 °F -  
Max Temperature 93 °F 88 °F 105 °F (1983)
Min Temperature 71 °F 63 °F 46 °F (1967)
Cooling Degree Days 17    
Growing Degree Days 32 (Base 50)    
Moisture  
Dew Point 66 °F    
Average Humidity 64    
Maximum Humidity 94    
Minimum Humidity 34    
Precipitation  
Precipitation 0.00 in - - ()
Sea Level Pressure  
Sea Level Pressure 30.02 in    
Wind  
Wind Speed 4 mph (SSW)    
Max Wind Speed 16 mph    
Max Gust Speed 21 mph    
Visibility 8 miles    
Events      
Averages and records for this station are not official NWS values.
T = Trace of Precipitation, MM = Missing Value Source: NWS Daily Summary

Daily Weather History Graph

Daily Weather History Graph

Search for Another Location

Airport or City:

Trip Planner

Search our weather history database for the weather conditions in past years. The results will help you decide how hot, cold, wet, or windy it might be!

Date:

Astronomy

Aug. 27, 2013 Rise Set
Actual Time 6:33 AM CDT 7:45 PM CDT
Civil Twilight 6:06 AM CDT 8:13 PM CDT
Nautical Twilight 5:33 AM CDT 8:45 PM CDT
Astronomical Twilight 4:59 AM CDT 9:19 PM CDT
Moon 11:44 PM CDT (8/27) 1:26 PM CDT (8/27)
Length of Visible Light 14h 06m
Length of Day
13h 12m
Waning Gibbous, 57% of the Moon is Illuminated
Aug 27
Waning Gibbous
Aug 28
Last Quarter
Sep 5
New
Sep 12
First Quarter
Sep 19
Full

Hourly Weather History & Observations

Time (CDT) Temp. Heat Index Dew Point Humidity Pressure Visibility Wind Dir Wind Speed Gust Speed Precip Events Conditions
12:53 AM 75.9 °F - 70.0 °F 82% 30.04 in 10.0 mi ESE 3.5 mph - N/A   Clear
1:53 AM 73.9 °F - 70.0 °F 87% 30.04 in 10.0 mi ESE 4.6 mph - N/A   Clear
2:53 AM 73.0 °F - 69.1 °F 87% 30.03 in 10.0 mi Calm Calm - N/A   Clear
3:53 AM 73.9 °F - 70.0 °F 87% 30.03 in 10.0 mi Calm Calm - N/A   Clear
4:53 AM 73.0 °F - 69.1 °F 87% 30.02 in 4.0 mi Calm Calm - N/A   Clear
5:01 AM 71.6 °F - 69.8 °F 94% 30.07 in 1.2 mi Calm Calm - N/A   Clear
5:06 AM 73.4 °F - 69.8 °F 88% 30.07 in 3.0 mi East 3.5 mph - N/A   Clear
5:53 AM 73.9 °F - 69.1 °F 85% 30.03 in 10.0 mi Calm Calm - N/A   Clear
6:53 AM 72.0 °F - 68.0 °F 87% 30.05 in 9.0 mi Calm Calm - N/A   Clear
7:53 AM 73.9 °F - 70.0 °F 87% 30.06 in 9.0 mi Calm Calm - N/A   Clear
8:53 AM 79.0 °F - 70.0 °F 74% 30.06 in 10.0 mi WSW 5.8 mph - N/A   Clear
9:53 AM 82.9 °F 85.4 °F 66.9 °F 58% 30.06 in 10.0 mi WSW 8.1 mph - N/A   Clear
10:33 AM 86.0 °F 88.2 °F 66.2 °F 51% 30.10 in 1.8 mi West 9.2 mph - N/A   Haze
10:39 AM 86.0 °F 88.2 °F 66.2 °F 51% 30.10 in 3.0 mi West 5.8 mph - N/A   Haze
10:53 AM 88.0 °F 89.3 °F 64.0 °F 45% 30.05 in 10.0 mi WSW 12.7 mph 17.3 mph N/A   Clear
11:53 AM 89.1 °F 91.0 °F 64.9 °F 45% 30.04 in 10.0 mi West 11.5 mph 17.3 mph N/A   Clear
12:53 PM 91.0 °F 93.0 °F 64.9 °F 42% 30.02 in 10.0 mi Variable 6.9 mph 16.1 mph N/A   Clear
1:53 PM 91.9 °F 92.5 °F 62.1 °F 37% 29.99 in 10.0 mi West 9.2 mph - N/A   Scattered Clouds
2:53 PM 91.9 °F 91.5 °F 60.1 °F 34% 29.97 in 10.0 mi WSW 11.5 mph 17.3 mph N/A   Partly Cloudy
3:53 PM 93.0 °F 93.8 °F 62.1 °F 36% 29.96 in 10.0 mi SW 16.1 mph 20.7 mph N/A   Partly Cloudy
4:53 PM 91.0 °F 91.5 °F 62.1 °F 38% 29.96 in 10.0 mi SW 10.4 mph 16.1 mph N/A   Scattered Clouds
5:53 PM 91.0 °F 90.9 °F 61.0 °F 36% 29.96 in 10.0 mi SSW 9.2 mph - N/A   Clear
6:53 PM 89.1 °F 90.0 °F 63.0 °F 42% 29.96 in 10.0 mi SW 11.5 mph - N/A   Partly Cloudy
7:53 PM 86.0 °F 86.8 °F 63.0 °F 46% 29.96 in 10.0 mi SSW 3.5 mph - N/A   Clear
8:53 PM 80.1 °F 82.1 °F 66.0 °F 62% 29.97 in 10.0 mi Calm Calm - N/A   Clear
9:53 PM 79.0 °F - 66.9 °F 66% 29.99 in 10.0 mi SSE 3.5 mph - N/A   Clear
10:53 PM 77.0 °F - 66.9 °F 71% 29.99 in 10.0 mi SSE 3.5 mph - N/A   Clear
11:25 PM 77.0 °F - 66.2 °F 69% 30.03 in 2.5 mi ESE 3.5 mph - N/A   Haze
11:32 PM 77.0 °F - 66.2 °F 69% 30.03 in 10.0 mi Calm Calm - N/A   Clear
11:53 PM 77.0 °F - 66.9 °F 71% 29.98 in 3.0 mi Calm Calm - N/A   Haze